[[{"header":{"parameterUnit":"m.s-1","parameterCategory":2,"la1":30.2991,"la2":30.254,"lo1":-89.0895,"lo2":-89.0444,"dy":0.0017,"dx":0.0017,"nx":28,"ny":28,"refTime":"2025-04-18T03:00:00:Z","depth":"0","parameterNumber":2,"parameterNumberName":"U-component_of_CURRENTS"},"data":[0,0,0,0,0,0,0,0,0,0,0,0,0,0,0,0,0,0,0,0,0,0,0,0,0,0,0,0,0,0,0,0,0,0,0,0,0,0,0,0,0,0,0,0,0,0,0,0,0,0,0,0,0,0,0,0,0,0,0.2729,0.273,0,0.2763,0.2763,0.2763,0.2729,0.2728,0.2727,0.2726,0.2711,0.2712,0.2712,0,0,0,0,0,0,0,0,0,0,0,0,0,0.2664,0.2665,0.2729,0.273,0.2731,0.2763,0.2763,0.2763,0.2729,0.2728,0.2727,0.2726,0.2711,0.2712,0.2712,0,0,0,0,0,0,0,0,0,0,0,0,0,0.269,0.2665,0.2729,0.2721,0.2721,0.2763,0.2763,0.2763,0.2729,0.2728,0.2726,0.2725,0.2711,0.2712,0.2712,0.2745,0,0,0.2715,0.2715,0,0,0,0,0,0,0,0,0.2689,0.2692,0.2721,0.2721,0.2721,0.2744,0.2734,0.2756,0.273,0.2722,0.2726,0.2724,0.2721,0.2721,0.2725,0.2745,0.2744,0.2715,0.2715,0.2715,0.2716,0,0,0,0,0,0,0,0.2687,0.2691,0.2738,0.2722,0.2722,0.2725,0.2727,0.2738,0.2725,0.2722,0.2721,0.2732,0.272,0.2725,0.2725,0.2744,0.2715,0.2715,0.2716,0.2716,0.2857,0.286,0,0,0,0,0,0,0.2691,0.2689,0.2737,0.274,0.2706,0.2728,0.2729,0.2735,0.2726,0.2725,0.2733,0.273,0.2724,0.2724,0.2724,0.2828,0.2715,0.2716,0.2716,0.2854,0.2858,0.2861,0,0,0,0,0,0,0.269,0.2695,0.2736,0.2718,0.2724,0.2731,0.2737,0.2736,0.2748,0.2735,0.2732,0.2746,0.2723,0.2723,0.2752,0.2824,0.2716,0.2717,0.285,0.2855,0.286,0.2993,0,0,0,0,0,0,0.2688,0.2694,0.2698,0.2719,0.2726,0.2779,0.2739,0.2738,0.2758,0.2755,0.2746,0.2743,0.2722,0.2752,0.2753,0.2823,0.2718,0.2846,0.2852,0.2858,0.2984,0.3002,0.3017,0,0,0,0,0,0.2685,0.2701,0.2698,0.2704,0.2731,0.2781,0.2785,0.2781,0.276,0.2782,0.2774,0.2743,0.2793,0.2755,0.2756,0.2827,0.2843,0.285,0.2857,0.2977,0.2998,0.3016,0,0,0,0,0,0,0.267,0.27,0.2697,0.2719,0.2756,0.2777,0.2793,0.2795,0.2807,0.2797,0.2774,0.2772,0.2834,0.2811,0.2769,0.2889,0.2818,0.2826,0.2909,0.2929,0.2945,0.2929,0.2718,0,0,0,0,0,0.2672,0.2693,0.2726,0.2747,0.2764,0.2782,0.2799,0.2805,0.282,0.2823,0.2824,0.2832,0.2868,0.2878,0.2898,0.2951,0.2938,0.3003,0.302,0.3033,0.3024,0.307,0.3089,0.2886,0.2886,0.2886,0,0,0.267,0.2693,0.2702,0.2747,0.2766,0.2812,0.2787,0.2827,0.2872,0.2822,0.2874,0.2889,0.2896,0.2965,0.2991,0.2951,0.3093,0.3043,0.3054,0.3037,0.308,0.3099,0.3117,0.2891,0.289,0.2889,0,0,0.2697,0.2701,0.2734,0.2767,0.2815,0.2838,0.2856,0.2895,0.2916,0.2975,0.2964,0.3013,0.3052,0.308,0.3098,0.3214,0.3181,0.3235,0.3299,0.3347,0.3363,0.3377,0.3416,0.3432,0.3238,0.3239,0.3239,0,0.2692,0.2733,0.2755,0.28,0.2827,0.2855,0.2901,0.2944,0.2992,0.3018,0.3007,0.3102,0.3111,0.3201,0.3249,0.3252,0.3263,0.3224,0.3366,0.338,0.3392,0.3428,0.3444,0.3246,0.3245,0.3244,0.3244,0,0.2749,0.2778,0.2803,0.2866,0.2909,0.295,0.3012,0.3063,0.3093,0.3129,0.3223,0.3252,0.3295,0.3339,0.3329,0.3439,0.3418,0.3386,0.3311,0.342,0.3452,0.3466,0.3257,0.3254,0.3252,0.325,0,0,0.2732,0.2821,0.2828,0.2859,0.2937,0.2979,0.3068,0.315,0.3207,0.3274,0.3352,0.3441,0.3444,0.3464,0.348,0.3533,0.3652,0.3502,0.3501,0.353,0.3759,0.3706,0.3715,0.3646,0.3649,0.3651,0.3757,0,0.2762,0.2847,0.2888,0.2967,0.301,0.3061,0.3143,0.3223,0.3293,0.3382,0.344,0.352,0.3499,0.3538,0.359,0.3637,0.3691,0.3625,0.3655,0.3656,0.3587,0.3731,0.3564,0.364,0.377,0.3773,0.3774,0,0.28,0.2849,0.2927,0.3011,0.3034,0.309,0.3203,0.3283,0.3411,0.3466,0.3546,0.3588,0.3691,0.3655,0.3768,0.3728,0.375,0.3779,0.3783,0.3686,0.3629,0.3548,0.366,0.3564,0.3796,0.3794,0.3792,0,0.2782,0.2872,0.2931,0.2958,0.3068,0.311,0.3174,0.3299,0.3372,0.3519,0.3581,0.3689,0.3753,0.3807,0.3856,0.3825,0.3973,0.3927,0.39,0.3896,0.3732,0.3709,0.3737,0.4003,0.4003,0.4003,0.4003,0,0.2797,0.284,0.2922,0.2952,0.3021,0.3101,0.3195,0.3282,0.3413,0.3508,0.3607,0.3701,0.3795,0.3881,0.3906,0.3956,0.4006,0.3938,0.3932,0.3778,0.3759,0.3644,0.3609,0.4007,0.4006,0.4005,0.4005,0,0.2789,0.2839,0.2905,0.2996,0.3017,0.3074,0.3182,0.3268,0.3382,0.3513,0.3562,0.373,0.3853,0.393,0.4044,0.4013,0.3959,0.4066,0.388,0.385,0.3706,0.3684,0.3575,0.3468,0.4058,0.4058,0.4057,0,0.2806,0.2838,0.2915,0.2957,0.2997,0.3073,0.3138,0.3246,0.333,0.3525,0.359,0.3755,0.3856,0.4003,0.401,0.4057,0.3948,0.3916,0.3818,0.3703,0.3676,0.3539,0.3446,0.367,0.3666,0.3664,0.3661,0,0.2846,0.2866,0.293,0.2973,0.3031,0.3076,0.316,0.3201,0.3345,0.3439,0.3574,0.367,0.3826,0.3821,0.3894,0.3893,0.3719,0.3856,0.3784,0.3424,0.3228,0.3118,0.3599,0.3635,0.3638,0.364,0.3641,0.3642,0.2895,0.2922,0.2981,0.3008,0.3054,0.3056,0.3047,0.3138,0.3205,0.3302,0.3476,0.3552,0.3644,0.3724,0.37,0.3548,0.3551,0.3426,0.343,0.3317,0.3142,0.3572,0.3567,0.3569,0.3571,0.3573,0.3574,0,0.296,0.2972,0.3009,0.3007,0.2992,0.3018,0.3045,0.3006,0.301,0.3169,0.3252,0.3324,0.3331,0.3365,0.3282,0.3141,0.2977,0.3052,0.2815,0.2761,0.3188,0.3098,0.2932,0.2932,0.2932,0.2932,0.2932,0.2932,0.3014,0.3038,0.2999,0.2929,0.2909,0.2813,0.2787,0.2747,0.2793,0.2804,0.2834,0.2938,0.3067,0.3114,0.2959,0.2864,0.2633,0.2498,0.252,0.2826,0.286,0.2892,0.2798,0.2572,0.2571,0.1934,0.1929,0.1926]},{"header":{"parameterUnit":"m.s-1","parameterCategory":2,"la1":30.2991,"la2":30.254,"lo1":-89.0895,"lo2":-89.0444,"dy":0.0017,"dx":0.0017,"nx":28,"ny":28,"refTime":"2025-04-18T03:00:00:Z","depth":"0","parameterNumber":3,"parameterNumberName":"V-component_of_CURRENTS"},"data":[0,0,0,0,0,0,0,0,0,0,0,0,0,0,0,0,0,0,0,0,0,0,0,0,0,0,0,0,0,0,0,0,0,0,0,0,0,0,0,0,0,0,0,0,0,0,0,0,0,0,0,0,0,0,0,0,0,0,0.0197,0.0196,0,0.0138,0.0137,0.0136,0.0091,0.0091,0.0091,0.0091,-0.0003,-0.0005,-0.0007,0,0,0,0,0,0,0,0,0,0,0,0,0,0.0197,0.0198,0.0197,0.0196,0.0196,0.0138,0.0137,0.0136,0.0091,0.0091,0.0091,0.0091,-0.0002,-0.0005,-0.0008,0,0,0,0,0,0,0,0,0,0,0,0,0,0.0171,0.0198,0.0197,0.0169,0.0166,0.0138,0.0137,0.0136,0.0091,0.0091,0.0091,0.0091,-0.0001,-0.0005,-0.0008,-0.0024,0,0,-0.0019,-0.002,0,0,0,0,0,0,0,0,0.0173,0.0171,0.0173,0.017,0.0167,0.0124,0.0103,0.0081,0.0091,0.0117,0.0091,0.009,0.0038,0.0031,0.0018,-0.0029,-0.0033,-0.0019,-0.0021,-0.0023,-0.0024,0,0,0,0,0,0,0,0.0175,0.0173,0.0171,0.0173,0.0169,0.0134,0.013,0.0098,0.0077,0.0115,0.0112,0.011,0.0036,0.0021,0.0015,-0.0034,-0.0019,-0.0022,-0.0024,-0.0026,-0.0101,-0.01,0,0,0,0,0,0,0.0192,0.0175,0.0173,0.0169,0.0172,0.0135,0.013,0.0136,0.0078,0.007,0.011,0.0108,0.0027,0.0019,0.0012,-0.0002,-0.0023,-0.0026,-0.0028,-0.0101,-0.0101,-0.01,0,0,0,0,0,0,0.0192,0.0193,0.0175,0.0172,0.0168,0.0136,0.0142,0.0135,0.0124,0.0075,0.0066,0.0107,0.0027,0.0017,-0.0008,-0.0006,-0.0027,-0.0031,-0.0101,-0.0101,-0.01,-0.0035,0,0,0,0,0,0,0.0193,0.0193,0.0198,0.0174,0.0169,0.0171,0.0142,0.0134,0.0125,0.0121,0.007,0.0061,0.0026,-0.0003,-0.0012,-0.0012,-0.0033,-0.0101,-0.0101,-0.0101,-0.0037,-0.0033,-0.0029,0,0,0,0,0,0.0193,0.0208,0.0198,0.0198,0.0178,0.0172,0.0166,0.0139,0.0125,0.0127,0.0092,0.0062,-0.0008,-0.0005,-0.0016,-0.0017,-0.0101,-0.0101,-0.0101,-0.0039,-0.0034,-0.0029,0,0,0,0,0,0,0.021,0.0204,0.0193,0.0205,0.0194,0.0165,0.0163,0.0146,0.0119,0.0115,0.0066,0.0055,0.0032,0.0,0.0005,-0.0038,-0.0061,-0.0063,-0.0011,-0.0006,-0.0002,0.0034,-0.0036,0,0,0,0,0,0.0218,0.0226,0.0213,0.0221,0.0219,0.0191,0.0183,0.017,0.0145,0.0133,0.0098,0.0058,0.0023,0.0005,-0.0029,-0.005,-0.0064,-0.0059,-0.0054,-0.005,-0.0029,-0.0055,-0.005,-0.01,-0.01,-0.01,0,0,0.0227,0.0224,0.0228,0.0225,0.0211,0.0221,0.0185,0.0184,0.0189,0.0127,0.0118,0.0074,0.0022,-0.0002,-0.0016,-0.0027,-0.0043,-0.005,-0.0046,-0.0027,-0.0054,-0.0049,-0.0044,-0.01,-0.01,-0.01,0,0,0.0257,0.0248,0.0268,0.0265,0.0257,0.0243,0.0248,0.0226,0.0213,0.0199,0.0153,0.0118,0.0067,0.0032,0.0006,0.0015,-0.0018,-0.0005,0.0044,0.0019,0.0023,0.0027,0.0025,0.0028,-0.0004,-0.0004,-0.0004,0,0.0266,0.0293,0.0271,0.0291,0.0297,0.026,0.0286,0.0268,0.024,0.0238,0.0208,0.0137,0.0086,0.0062,0.0058,0.0027,0.0015,0.003,0.0027,0.003,0.0033,0.003,0.0032,-0.0001,-0.0001,-0.0001,-0.0002,0,0.0313,0.0333,0.0345,0.0361,0.0363,0.0378,0.0359,0.0355,0.033,0.0311,0.0284,0.0211,0.0175,0.014,0.0098,0.0088,0.0076,0.0037,0.0019,0.0042,0.0037,0.0038,0.0004,0.0003,0.0002,0.0001,0,0,0.0339,0.0373,0.0378,0.0408,0.0404,0.0419,0.0426,0.043,0.0456,0.0395,0.0418,0.0324,0.0286,0.0255,0.019,0.0157,0.0153,0.011,0.0107,0.012,0.0118,0.0118,0.0119,0.0112,0.0112,0.0112,0.0111,0,0.0383,0.0449,0.0445,0.0505,0.0541,0.0517,0.0538,0.0534,0.0518,0.053,0.0444,0.0434,0.0329,0.0317,0.0263,0.0192,0.0158,0.0158,0.0085,0.0084,0.009,0.0121,0.0106,0.0104,0.0112,0.0112,0.0113,0,0.043,0.0475,0.0549,0.0604,0.0617,0.0646,0.0688,0.0703,0.0697,0.0685,0.0644,0.0582,0.0525,0.0434,0.0318,0.0324,0.0231,0.0162,0.016,0.0143,0.0086,0.0079,0.0106,-0.0053,0.0114,0.0114,0.0114,0,0.0481,0.0544,0.0614,0.0632,0.0686,0.0719,0.0745,0.0758,0.0813,0.0797,0.0841,0.0728,0.0723,0.0571,0.0412,0.0369,0.03,0.0222,0.0134,0.0133,0.0099,0.0095,-0.0024,0.0143,0.0143,0.0143,0.0143,0,0.0535,0.0593,0.0654,0.0698,0.0806,0.0801,0.091,0.0917,0.0967,0.1069,0.0938,0.0999,0.076,0.0681,0.0487,0.034,0.0355,0.0166,0.0137,0.0122,0.012,-0.0037,-0.0136,0.0143,0.0143,0.0143,0.0143,0,0.0602,0.0624,0.0732,0.081,0.0842,0.0932,0.1053,0.1146,0.1155,0.129,0.1299,0.1236,0.1136,0.0896,0.0685,0.0486,0.021,0.0243,0.0255,0.0227,-0.0023,-0.0116,-0.0254,-0.0335,0.0146,0.0146,0.0146,0,0.0652,0.0713,0.084,0.0938,0.099,0.1112,0.1218,0.1251,0.1361,0.1455,0.1545,0.1484,0.1474,0.1163,0.0788,0.0464,0.0263,0.0231,0.0129,-0.0014,-0.0142,-0.0218,-0.0282,0.011,0.011,0.011,0.0109,0,0.0788,0.083,0.0937,0.1108,0.1242,0.1382,0.1521,0.1625,0.1692,0.1792,0.191,0.1905,0.1624,0.1284,0.0832,0.0591,0.0109,0.0218,0.0053,-0.0179,-0.0254,-0.0352,0.0103,0.0108,0.0108,0.0108,0.0108,0.0108,0.0922,0.1024,0.1154,0.1309,0.1466,0.1622,0.173,0.1876,0.2034,0.2172,0.2186,0.2196,0.17,0.1085,0.0759,0.0132,0.0122,-0.0087,-0.0185,-0.0244,-0.0339,0.0136,0.0111,0.0111,0.0112,0.0112,0.0112,0,0.1072,0.1167,0.1342,0.1513,0.1669,0.1706,0.1915,0.2014,0.2185,0.2341,0.2427,0.2169,0.1601,0.0999,0.0149,-0.0233,-0.0388,-0.0436,-0.0572,-0.0618,-0.0209,-0.0228,-0.0307,-0.0307,-0.0306,-0.0306,-0.0306,-0.0306,0.1171,0.1331,0.1381,0.163,0.1747,0.1919,0.202,0.2182,0.231,0.2445,0.2422,0.2396,0.1865,0.0478,-0.0429,-0.0612,-0.0886,-0.0939,-0.1054,-0.0806,-0.0782,-0.0759,-0.0801,-0.0998,-0.0999,-0.1434,-0.1439,-0.1442]}],[{"header":{"parameterUnit":"m.s-1","parameterCategory":2,"la1":30.2991,"la2":30.254,"lo1":-89.0895,"lo2":-89.0444,"dy":0.0017,"dx":0.0017,"nx":28,"ny":28,"refTime":"2025-04-18T03:00:00:Z","depth":"2","parameterNumber":2,"parameterNumberName":"U-component_of_CURRENTS"},"data":[0,0,0,0,0,0,0,0,0,0,0,0,0,0,0,0,0,0,0,0,0,0,0,0,0,0,0,0,0,0,0,0,0,0,0,0,0,0,0,0,0,0,0,0,0,0,0,0,0,0,0,0,0,0,0,0,0,0,0.2373,0.2374,0,0.2432,0.2432,0.2433,0.2448,0.2447,0.2447,0.2446,0.2444,0.2445,0.2445,0,0,0,0,0,0,0,0,0,0,0,0,0,0.2349,0.2349,0.2373,0.2374,0.2374,0.2432,0.2433,0.2433,0.2448,0.2447,0.2447,0.2446,0.2444,0.2445,0.2445,0,0,0,0,0,0,0,0,0,0,0,0,0,0.238,0.2349,0.2373,0.2388,0.2389,0.2431,0.2433,0.2434,0.2448,0.2447,0.2447,0.2446,0.2444,0.2445,0.2445,0.2464,0,0,0.2447,0.2447,0,0,0,0,0,0,0,0,0.2378,0.2381,0.2385,0.2387,0.2389,0.2431,0.2423,0.244,0.2448,0.2427,0.2446,0.2446,0.2434,0.2435,0.2451,0.2464,0.2463,0.2447,0.2448,0.2448,0.2448,0,0,0,0,0,0,0,0.2376,0.2379,0.2397,0.2386,0.2388,0.2417,0.242,0.2427,0.2434,0.2429,0.243,0.2435,0.2435,0.245,0.245,0.2463,0.2447,0.2448,0.2448,0.2448,0.2573,0.2576,0,0,0,0,0,0,0.2363,0.2376,0.2396,0.2399,0.238,0.2418,0.2421,0.2419,0.2435,0.2437,0.2435,0.2435,0.2449,0.245,0.245,0.2561,0.2448,0.2448,0.2449,0.257,0.2574,0.2577,0,0,0,0,0,0,0.2362,0.2364,0.2393,0.2389,0.2394,0.2418,0.2416,0.242,0.2447,0.244,0.2441,0.2458,0.2449,0.2449,0.2474,0.2557,0.2449,0.2449,0.2567,0.2571,0.2575,0.2724,0,0,0,0,0,0,0.2361,0.2363,0.2378,0.2387,0.2394,0.2445,0.2417,0.2422,0.245,0.245,0.246,0.2458,0.2448,0.2474,0.2475,0.2556,0.245,0.2563,0.2569,0.2574,0.2716,0.2733,0.2748,0,0,0,0,0,0.236,0.2374,0.2378,0.2381,0.2406,0.2447,0.2455,0.2469,0.2451,0.2485,0.248,0.2459,0.2511,0.2476,0.2477,0.256,0.256,0.2567,0.2574,0.2708,0.273,0.2748,0,0,0,0,0,0,0.2357,0.2377,0.2381,0.2397,0.2433,0.2449,0.2474,0.248,0.2504,0.2496,0.2481,0.2481,0.254,0.2522,0.2484,0.2613,0.2539,0.2546,0.2641,0.2661,0.2677,0.2645,0.245,0,0,0,0,0,0.2366,0.2385,0.2411,0.2424,0.2443,0.2462,0.2483,0.2494,0.2506,0.2517,0.2525,0.2536,0.2569,0.2588,0.2604,0.2663,0.2636,0.2722,0.2738,0.2752,0.2728,0.2778,0.2796,0.2599,0.2599,0.2599,0,0,0.2362,0.2378,0.2386,0.2428,0.2447,0.2489,0.2473,0.2509,0.2557,0.2511,0.2574,0.2585,0.2593,0.267,0.2697,0.2665,0.2799,0.2761,0.2773,0.274,0.2787,0.2806,0.2823,0.2603,0.2603,0.2602,0,0,0.2373,0.2384,0.2415,0.2452,0.2497,0.2516,0.253,0.2568,0.2605,0.2658,0.2654,0.2699,0.2741,0.2779,0.2797,0.2907,0.2877,0.2937,0.3005,0.3057,0.3073,0.3086,0.3091,0.3104,0.2955,0.2955,0.2956,0,0.238,0.2406,0.2434,0.2478,0.2503,0.2528,0.2568,0.2623,0.2669,0.2703,0.2691,0.2778,0.2791,0.2889,0.294,0.2945,0.2951,0.2934,0.3078,0.309,0.3102,0.3103,0.3116,0.2963,0.2962,0.2962,0.2961,0,0.243,0.2447,0.2465,0.2526,0.2568,0.2602,0.2668,0.2728,0.2758,0.2799,0.2896,0.2925,0.2971,0.3018,0.3011,0.3129,0.3099,0.3088,0.3025,0.3131,0.3126,0.3136,0.2975,0.2972,0.2969,0.2968,0,0,0.2434,0.2491,0.2498,0.2523,0.259,0.2628,0.2717,0.2803,0.2869,0.2936,0.3014,0.3104,0.3115,0.3136,0.3167,0.3221,0.3326,0.3201,0.32,0.32,0.342,0.3344,0.3346,0.3357,0.336,0.3361,0.3389,0,0.2462,0.2538,0.256,0.2619,0.2652,0.2701,0.2786,0.2872,0.2944,0.3037,0.3097,0.3182,0.3171,0.3219,0.3274,0.3313,0.3357,0.3317,0.3319,0.3318,0.3235,0.3358,0.3113,0.3112,0.3398,0.3399,0.34,0,0.2491,0.2543,0.2601,0.266,0.2684,0.2735,0.2854,0.2941,0.3074,0.3131,0.3212,0.3254,0.3357,0.3328,0.3425,0.3408,0.3415,0.3429,0.3431,0.3302,0.3261,0.3051,0.3118,0.3416,0.3415,0.3414,0.3413,0,0.248,0.255,0.2592,0.2617,0.2712,0.276,0.2834,0.2966,0.3049,0.3201,0.3254,0.3363,0.3428,0.3468,0.3499,0.3481,0.3576,0.3552,0.3477,0.347,0.3225,0.3192,0.3599,0.3599,0.3599,0.3599,0.3599,0,0.248,0.2519,0.2592,0.2627,0.2705,0.2774,0.287,0.2981,0.3107,0.3196,0.3305,0.3385,0.3472,0.3532,0.3535,0.354,0.3607,0.3492,0.3486,0.3272,0.3245,0.3465,0.3449,0.36,0.36,0.36,0.3599,0,0.2462,0.2497,0.2555,0.2659,0.269,0.2764,0.2879,0.2967,0.3093,0.321,0.326,0.3422,0.3505,0.3552,0.3624,0.3584,0.3597,0.3572,0.3295,0.3256,0.3437,0.3429,0.3489,0.3487,0.3485,0.3483,0.3482,0,0.2468,0.2483,0.258,0.2634,0.2683,0.2775,0.2846,0.2959,0.3041,0.3219,0.3279,0.3406,0.3463,0.3538,0.3515,0.3496,0.3559,0.325,0.3167,0.3444,0.3433,0.3427,0.3422,0.2901,0.2895,0.289,0.2886,0,0.2489,0.2508,0.2573,0.2668,0.2731,0.28,0.2906,0.2912,0.304,0.3112,0.3217,0.3272,0.3363,0.3258,0.3265,0.3221,0.3236,0.315,0.3538,0.2974,0.2894,0.2882,0.2895,0.2843,0.2847,0.2851,0.2853,0.2855,0.2516,0.2549,0.2619,0.2686,0.2777,0.2821,0.2813,0.286,0.2887,0.2906,0.3033,0.3005,0.3053,0.2931,0.285,0.28,0.3009,0.2871,0.2884,0.2902,0.2837,0.276,0.2668,0.2671,0.2674,0.2676,0.2678,0,0.2557,0.2588,0.2649,0.271,0.2765,0.2842,0.2857,0.2756,0.2674,0.2701,0.2699,0.2454,0.2415,0.2463,0.2331,0.2339,0.2299,0.2237,0.2162,0.2209,0.225,0.2147,0.1797,0.1794,0.1791,0.1788,0,0,0.2585,0.2608,0.2583,0.2634,0.2716,0.2734,0.2696,0.2495,0.2426,0.2219,0.2158,0.2286,0.2397,0.2046,0.202,0.1888,0.2023,0.1815,0.2533,0.2493,0.2529,0.264,0.254,0,0,0,0,0]},{"header":{"parameterUnit":"m.s-1","parameterCategory":2,"la1":30.2991,"la2":30.254,"lo1":-89.0895,"lo2":-89.0444,"dy":0.0017,"dx":0.0017,"nx":28,"ny":28,"refTime":"2025-04-18T03:00:00:Z","depth":"2","parameterNumber":3,"parameterNumberName":"V-component_of_CURRENTS"},"data":[0,0,0,0,0,0,0,0,0,0,0,0,0,0,0,0,0,0,0,0,0,0,0,0,0,0,0,0,0,0,0,0,0,0,0,0,0,0,0,0,0,0,0,0,0,0,0,0,0,0,0,0,0,0,0,0,0,0,0.0021,0.0021,0,-0.0019,-0.002,-0.002,-0.0048,-0.0048,-0.0048,-0.0048,-0.0124,-0.0126,-0.0128,0,0,0,0,0,0,0,0,0,0,0,0,0,0.0021,0.0021,0.0021,0.0021,0.002,-0.0019,-0.002,-0.002,-0.0048,-0.0048,-0.0048,-0.0048,-0.0123,-0.0126,-0.0128,0,0,0,0,0,0,0,0,0,0,0,0,0,0.0004,0.0022,0.0021,0.0003,0.0001,-0.0019,-0.002,-0.0021,-0.0048,-0.0048,-0.0048,-0.0049,-0.0122,-0.0125,-0.0128,-0.0143,0,0,-0.0137,-0.0138,0,0,0,0,0,0,0,0,0.0005,0.0004,0.0006,0.0004,0.0002,-0.0028,-0.0047,-0.0063,-0.0048,-0.0031,-0.0048,-0.0049,-0.0094,-0.0099,-0.0108,-0.0146,-0.0149,-0.0137,-0.0139,-0.014,-0.0141,0,0,0,0,0,0,0,0.0006,0.0005,0.0004,0.0005,0.0003,-0.0022,-0.0024,-0.0051,-0.0063,-0.0032,-0.0034,-0.0037,-0.0096,-0.0105,-0.011,-0.0151,-0.0137,-0.014,-0.0141,-0.0142,-0.0205,-0.0205,0,0,0,0,0,0,0.0017,0.0007,0.0005,0.0003,0.0004,-0.0021,-0.0024,-0.0019,-0.0062,-0.0068,-0.0037,-0.0038,-0.01,-0.0106,-0.0113,-0.0118,-0.014,-0.0143,-0.0144,-0.0205,-0.0205,-0.0205,0,0,0,0,0,0,0.0017,0.0017,0.0007,0.0004,0.0001,-0.0021,-0.0015,-0.002,-0.0027,-0.0064,-0.0071,-0.0039,-0.01,-0.0109,-0.0128,-0.0122,-0.0144,-0.0147,-0.0205,-0.0205,-0.0205,-0.0138,0,0,0,0,0,0,0.0017,0.0018,0.0025,0.0005,0.0002,0.0008,-0.0015,-0.002,-0.0028,-0.003,-0.0069,-0.0076,-0.0101,-0.0123,-0.0131,-0.0126,-0.0149,-0.0205,-0.0205,-0.0205,-0.014,-0.0136,-0.0132,0,0,0,0,0,0.0018,0.0035,0.0026,0.0026,0.0013,0.0008,0.0005,-0.0013,-0.0028,-0.0023,-0.0051,-0.0075,-0.0128,-0.0125,-0.0134,-0.013,-0.0205,-0.0205,-0.0205,-0.0142,-0.0137,-0.0132,0,0,0,0,0,0,0.0039,0.0034,0.0023,0.0038,0.0027,0.0004,0.0007,-0.001,-0.0028,-0.0031,-0.0071,-0.008,-0.0096,-0.0124,-0.012,-0.0149,-0.0172,-0.0174,-0.0121,-0.0116,-0.0112,-0.0074,-0.0151,0,0,0,0,0,0.0047,0.0057,0.0044,0.0053,0.0052,0.0028,0.0022,0.0013,-0.0007,-0.0015,-0.0044,-0.0076,-0.0103,-0.0117,-0.0143,-0.0158,-0.018,-0.0163,-0.0159,-0.0155,-0.013,-0.0162,-0.0158,-0.0205,-0.0205,-0.0205,0,0,0.0056,0.0054,0.0058,0.0058,0.0047,0.0061,0.0025,0.0026,0.0035,-0.0021,-0.0021,-0.0061,-0.0104,-0.0117,-0.0128,-0.0139,-0.0156,-0.0155,-0.0151,-0.0128,-0.0162,-0.0157,-0.0153,-0.0205,-0.0205,-0.0205,0,0,0.0087,0.0079,0.0102,0.0102,0.0097,0.0085,0.0088,0.0071,0.0061,0.0052,0.0013,-0.0013,-0.0059,-0.008,-0.01,-0.0088,-0.0132,-0.0111,-0.0057,-0.0089,-0.0084,-0.0081,-0.011,-0.011,-0.0109,-0.0109,-0.0109,0,0.0099,0.0129,0.0107,0.0132,0.0141,0.0101,0.0133,0.0117,0.0094,0.0095,0.0063,0.0007,-0.0034,-0.0045,-0.0044,-0.0075,-0.0103,-0.0071,-0.0081,-0.0078,-0.0075,-0.0106,-0.0107,-0.0105,-0.0106,-0.0106,-0.0106,0,0.015,0.0175,0.0189,0.0209,0.0214,0.0233,0.0216,0.0214,0.0189,0.0172,0.0152,0.009,0.0063,0.0032,-0.0004,-0.0009,-0.0039,-0.007,-0.0088,-0.0066,-0.0101,-0.0103,-0.0101,-0.0102,-0.0103,-0.0104,0,0,0.0178,0.022,0.0226,0.0257,0.0261,0.0276,0.029,0.0299,0.0321,0.0269,0.0286,0.0218,0.018,0.0155,0.0096,0.0062,0.0041,0.0007,0.0004,-0.001,-0.003,-0.0063,-0.0069,0.0001,0.0001,0.0002,-0.0064,0,0.0228,0.0302,0.0303,0.0369,0.0407,0.0387,0.0409,0.0408,0.0391,0.0394,0.032,0.0307,0.0226,0.021,0.0164,0.0079,0.0041,0.0062,-0.0058,-0.0061,-0.0084,-0.007,-0.0043,-0.01,-0.0065,-0.0066,-0.0066,0,0.0279,0.0329,0.0408,0.0468,0.0482,0.051,0.0549,0.0568,0.0555,0.054,0.0507,0.0443,0.0391,0.0312,0.0187,0.0201,0.01,0.0022,0.0017,-0.0031,-0.0097,-0.0116,-0.0105,-0.0069,-0.0069,-0.0069,-0.0069,0,0.0323,0.0399,0.0469,0.0489,0.0546,0.0577,0.0605,0.0615,0.0655,0.0639,0.0662,0.0567,0.0539,0.0401,0.0231,0.0209,0.0087,0.0035,-0.0089,-0.0093,-0.0099,-0.0104,-0.0049,-0.0049,-0.0048,-0.0048,-0.0048,0,0.0378,0.0436,0.0499,0.0541,0.0633,0.0644,0.0727,0.0743,0.0778,0.0834,0.0746,0.0766,0.056,0.0455,0.028,0.0099,0.0122,-0.0064,-0.0107,-0.0078,-0.0079,-0.0075,-0.0077,-0.0051,-0.005,-0.005,-0.0049,0,0.0417,0.0455,0.0545,0.0625,0.0659,0.0725,0.0825,0.089,0.091,0.0982,0.0984,0.0925,0.0781,0.0562,0.0341,0.0184,-0.0002,-0.0078,-0.003,-0.0065,-0.0175,-0.0173,-0.0213,-0.0215,-0.0216,-0.0217,-0.0218,0,0.0443,0.0491,0.0611,0.0684,0.0728,0.0826,0.0904,0.0954,0.1035,0.108,0.1133,0.1024,0.0948,0.0628,0.0324,0.002,-0.0021,-0.014,-0.0178,-0.0152,-0.0189,-0.0185,-0.0182,-0.0166,-0.0166,-0.0166,-0.0167,0,0.0488,0.0524,0.0602,0.0753,0.0854,0.0976,0.1091,0.1167,0.1222,0.1277,0.1313,0.1251,0.0957,0.0665,0.0271,0.0067,-0.0093,-0.0158,-0.0133,-0.0129,-0.0112,-0.0148,-0.0144,-0.017,-0.0169,-0.0169,-0.0169,-0.0169,0.0509,0.057,0.067,0.081,0.0939,0.1089,0.1181,0.1302,0.1406,0.1471,0.1406,0.1322,0.1025,0.051,0.0193,-0.0129,-0.0129,-0.0244,-0.0241,-0.0237,-0.0221,-0.0208,-0.028,-0.028,-0.028,-0.028,-0.0281,0,0.0512,0.0592,0.0728,0.0869,0.0989,0.1091,0.128,0.1358,0.1469,0.1529,0.1507,0.1168,0.0877,0.0547,0.0075,-0.0214,-0.0231,-0.0307,-0.0255,-0.025,-0.0246,-0.0228,-0.0291,-0.0291,-0.0292,-0.0293,0,0,0.0521,0.0604,0.0675,0.0852,0.0982,0.114,0.1255,0.1392,0.1477,0.151,0.1471,0.1357,0.0976,0.0627,0.0241,-0.0012,-0.0067,-0.0073,-0.0035,0.0076,0.0084,-0.0185,-0.0149,0,0,0,0,0]}],[{"header":{"parameterUnit":"m.s-1","parameterCategory":2,"la1":30.2991,"la2":30.254,"lo1":-89.0895,"lo2":-89.0444,"dy":0.0017,"dx":0.0017,"nx":28,"ny":28,"refTime":"2025-04-18T03:00:00:Z","depth":"4","parameterNumber":2,"parameterNumberName":"U-component_of_CURRENTS"},"data":[0,0,0,0,0,0,0,0,0,0,0,0,0,0,0,0,0,0,0,0,0,0,0,0,0,0,0,0,0,0,0,0,0,0,0,0,0,0,0,0,0,0,0,0,0,0,0,0,0,0,0,0,0,0,0,0,0,0,0.1446,0.1447,0,0.1505,0.1506,0.1506,0.1564,0.1565,0.1566,0.1567,0.1638,0.1639,0.164,0,0,0,0,0,0,0,0,0,0,0,0,0,0.1363,0.1364,0.1446,0.1447,0.1448,0.1505,0.1506,0.1506,0.1564,0.1565,0.1566,0.1567,0.1638,0.1639,0.164,0,0,0,0,0,0,0,0,0,0,0,0,0,0.1406,0.1364,0.1446,0.1485,0.1489,0.1505,0.1506,0.1506,0.1563,0.1565,0.1566,0.1567,0.1637,0.1639,0.164,0.1622,0,0,0.1645,0.1646,0,0,0,0,0,0,0,0,0.1403,0.1409,0.1478,0.1482,0.1487,0.153,0.1503,0.1546,0.1563,0.1533,0.1567,0.1568,0.1604,0.1608,0.1613,0.1625,0.1628,0.1645,0.1646,0.1647,0.1647,0,0,0,0,0,0,0,0.14,0.1406,0.1467,0.1479,0.1485,0.1493,0.15,0.1511,0.1558,0.1536,0.1541,0.155,0.1606,0.1611,0.1615,0.1629,0.1645,0.1647,0.1648,0.1648,0.1737,0.1738,0,0,0,0,0,0,0.1397,0.1404,0.1466,0.1469,0.145,0.1493,0.1502,0.1513,0.1558,0.1567,0.1549,0.1553,0.1608,0.1613,0.1618,0.1691,0.1647,0.1648,0.1649,0.1735,0.1737,0.1739,0,0,0,0,0,0,0.1395,0.1402,0.1463,0.1439,0.1448,0.1494,0.1506,0.1514,0.1552,0.1568,0.1577,0.1583,0.1609,0.1616,0.1659,0.169,0.1649,0.165,0.1734,0.1736,0.1738,0.1777,0,0,0,0,0,0,0.1392,0.1401,0.1421,0.1439,0.1449,0.1487,0.1505,0.1514,0.1555,0.1561,0.16,0.1606,0.1611,0.1657,0.166,0.1692,0.1652,0.1732,0.1735,0.1737,0.1774,0.178,0.1785,0,0,0,0,0,0.1389,0.1401,0.1421,0.143,0.1471,0.1488,0.1494,0.1529,0.1555,0.1569,0.1606,0.1607,0.1677,0.1659,0.1663,0.1696,0.1731,0.1734,0.1737,0.1771,0.1779,0.1785,0,0,0,0,0,0,0.1376,0.1409,0.1432,0.1455,0.148,0.1499,0.1518,0.1544,0.1583,0.16,0.1619,0.1628,0.168,0.1681,0.1661,0.173,0.1706,0.171,0.173,0.1738,0.1743,0.1762,0.1653,0,0,0,0,0,0.1382,0.1399,0.1432,0.1451,0.1467,0.1499,0.1518,0.1542,0.1572,0.1592,0.1625,0.166,0.1689,0.1709,0.1731,0.1762,0.1784,0.1789,0.1794,0.1799,0.1819,0.1878,0.1892,0.1749,0.1749,0.1749,0,0,0.1383,0.1402,0.1415,0.1449,0.1472,0.1497,0.1514,0.1545,0.1574,0.1592,0.1652,0.1682,0.1703,0.1746,0.1769,0.1755,0.185,0.1803,0.1807,0.1825,0.1883,0.1897,0.1909,0.1751,0.1751,0.1751,0,0,0.1374,0.1411,0.1422,0.1448,0.1488,0.1508,0.1525,0.1568,0.1599,0.1644,0.1677,0.1735,0.1765,0.1803,0.1819,0.187,0.188,0.1875,0.1919,0.1976,0.1988,0.2,0.2038,0.2053,0.1876,0.1876,0.1876,0,0.138,0.14,0.1427,0.1448,0.1478,0.1518,0.1545,0.1572,0.1629,0.1667,0.1669,0.1776,0.1795,0.1867,0.189,0.1886,0.1913,0.1887,0.1984,0.1996,0.2007,0.2044,0.2059,0.1878,0.1878,0.1877,0.1877,0,0.1371,0.141,0.1419,0.1463,0.1494,0.1523,0.1568,0.1614,0.1658,0.1698,0.1788,0.1827,0.19,0.191,0.1914,0.2009,0.2001,0.1985,0.1965,0.2024,0.2058,0.2074,0.1881,0.188,0.188,0.1879,0,0,0.1334,0.1402,0.141,0.1449,0.1512,0.1536,0.159,0.1655,0.172,0.1774,0.1861,0.1921,0.1975,0.2,0.2028,0.2076,0.217,0.2068,0.207,0.2106,0.2294,0.2119,0.2118,0.2173,0.2176,0.2178,0.2284,0,0.1329,0.1369,0.1407,0.1469,0.1504,0.157,0.1621,0.169,0.1758,0.1852,0.1913,0.2006,0.1997,0.206,0.2106,0.2168,0.2214,0.2143,0.2234,0.2237,0.2073,0.2131,0.2188,0.2296,0.2299,0.2302,0.2304,0,0.1308,0.1347,0.1397,0.1498,0.1521,0.1569,0.1685,0.174,0.1864,0.1925,0.203,0.2091,0.2204,0.2175,0.2304,0.2261,0.229,0.2313,0.2317,0.2154,0.209,0.2229,0.2331,0.2329,0.2327,0.2325,0.2323,0,0.1258,0.1344,0.1387,0.142,0.153,0.1583,0.1652,0.1773,0.1841,0.2004,0.208,0.2204,0.2289,0.235,0.24,0.2375,0.2513,0.248,0.2346,0.2334,0.2443,0.243,0.2565,0.2565,0.2565,0.2565,0.2564,0,0.1228,0.1272,0.138,0.1408,0.1488,0.1579,0.1683,0.1774,0.1916,0.2005,0.2133,0.2215,0.234,0.2421,0.2446,0.2438,0.2555,0.2371,0.2355,0.2454,0.2441,0.2453,0.2438,0.2569,0.2568,0.2567,0.2566,0,0.1166,0.1227,0.1295,0.142,0.1466,0.1531,0.1685,0.1761,0.1911,0.2035,0.2095,0.2261,0.2362,0.2445,0.2554,0.2481,0.2503,0.2467,0.2576,0.2563,0.2278,0.2264,0.2339,0.2334,0.233,0.2326,0.2323,0,0.1136,0.1163,0.1289,0.133,0.1394,0.1505,0.1576,0.174,0.1814,0.2032,0.2071,0.2237,0.2322,0.2339,0.2433,0.247,0.2432,0.2428,0.2342,0.228,0.2259,0.2252,0.2245,0.2316,0.2315,0.2314,0.2313,0,0.1091,0.1137,0.1187,0.1261,0.1342,0.1421,0.1534,0.158,0.1763,0.192,0.2007,0.2075,0.2173,0.224,0.228,0.2298,0.2425,0.2382,0.239,0.2309,0.2253,0.2234,0.2232,0.2297,0.23,0.2301,0.2302,0,0.1056,0.107,0.1122,0.1184,0.1253,0.1289,0.1383,0.1469,0.1562,0.18,0.1824,0.1996,0.2147,0.2151,0.2191,0.2193,0.2157,0.2081,0.2105,0.2122,0.1998,0.1891,0.1826,0,0,0,0,0,0.1012,0.1,0.1043,0.1075,0.1127,0.1173,0.1318,0.1416,0.1601,0.1613,0.1713,0.1795,0.1873,0.1961,0.1919,0.2088,0.2158,0.2029,0.2079,0.2213,0.2231,0.2102,0,0,0,0,0,0,0.0974,0.0991,0.1,0.0951,0.0953,0.1003,0.1095,0.124,0.1253,0.1455,0.1508,0.1659,0.1759,0.186,0.1869,0.1895,0.1886,0.2136,0.2131,0.2203,0.2219,0.2233,0.2107,0,0,0,0,0]},{"header":{"parameterUnit":"m.s-1","parameterCategory":2,"la1":30.2991,"la2":30.254,"lo1":-89.0895,"lo2":-89.0444,"dy":0.0017,"dx":0.0017,"nx":28,"ny":28,"refTime":"2025-04-18T03:00:00:Z","depth":"4","parameterNumber":3,"parameterNumberName":"V-component_of_CURRENTS"},"data":[0,0,0,0,0,0,0,0,0,0,0,0,0,0,0,0,0,0,0,0,0,0,0,0,0,0,0,0,0,0,0,0,0,0,0,0,0,0,0,0,0,0,0,0,0,0,0,0,0,0,0,0,0,0,0,0,0,0,0.0008,0.0008,0,-0.0018,-0.0019,-0.0019,-0.0043,-0.0043,-0.0043,-0.0043,-0.0093,-0.0094,-0.0095,0,0,0,0,0,0,0,0,0,0,0,0,0,0.0001,0.0001,0.0008,0.0008,0.0007,-0.0018,-0.0019,-0.0019,-0.0042,-0.0043,-0.0043,-0.0043,-0.0093,-0.0094,-0.0096,0,0,0,0,0,0,0,0,0,0,0,0,0,-0.0008,0.0002,0.0008,-0.0007,-0.0009,-0.0018,-0.0019,-0.0019,-0.0042,-0.0043,-0.0043,-0.0043,-0.0092,-0.0094,-0.0096,-0.0099,0,0,-0.0101,-0.0102,0,0,0,0,0,0,0,0,-0.0007,-0.0008,-0.0004,-0.0006,-0.0008,-0.0027,-0.0039,-0.0047,-0.0042,-0.003,-0.0043,-0.0044,-0.0073,-0.0076,-0.0081,-0.0101,-0.0104,-0.0101,-0.0102,-0.0103,-0.0103,0,0,0,0,0,0,0,-0.0007,-0.0007,-0.0003,-0.0005,-0.0007,-0.0025,-0.0026,-0.0041,-0.005,-0.0031,-0.0033,-0.0035,-0.0074,-0.0079,-0.0082,-0.0104,-0.0101,-0.0102,-0.0103,-0.0104,-0.0124,-0.0123,0,0,0,0,0,0,0.0,-0.0006,-0.0002,-0.0004,-0.0008,-0.0024,-0.0026,-0.0021,-0.0049,-0.0054,-0.0034,-0.0036,-0.0076,-0.008,-0.0084,-0.0068,-0.0103,-0.0104,-0.0105,-0.0124,-0.0124,-0.0123,0,0,0,0,0,0,0.0,0.0001,-0.0001,-0.0006,-0.0007,-0.0023,-0.0018,-0.0021,-0.0027,-0.0051,-0.0056,-0.0037,-0.0076,-0.0082,-0.0089,-0.0071,-0.0105,-0.0107,-0.0125,-0.0124,-0.0124,-0.0051,0,0,0,0,0,0,0.0,0.0001,0.0005,-0.0005,-0.0006,0.0005,-0.0018,-0.0021,-0.0027,-0.0029,-0.0055,-0.006,-0.0077,-0.0086,-0.0091,-0.0074,-0.0108,-0.0126,-0.0125,-0.0124,-0.0054,-0.0048,-0.0043,0,0,0,0,0,0.0,0.0015,0.0006,0.0006,0.0,0.0006,0.0004,-0.0011,-0.0027,-0.002,-0.0039,-0.0059,-0.0084,-0.0087,-0.0092,-0.0076,-0.0126,-0.0125,-0.0124,-0.0057,-0.0049,-0.0043,0,0,0,0,0,0,0.0014,0.0013,0.0003,0.0016,0.0014,0.0002,0.0005,-0.0008,-0.0019,-0.0023,-0.0052,-0.0058,-0.0059,-0.008,-0.0083,-0.0081,-0.0109,-0.0109,-0.0056,-0.0049,-0.0044,-0.0028,-0.0109,0,0,0,0,0,0.0019,0.0028,0.0023,0.0032,0.0033,0.0017,0.0015,0.0008,-0.0003,-0.0008,-0.0028,-0.0048,-0.0058,-0.0063,-0.0078,-0.0076,-0.0112,-0.0071,-0.0065,-0.006,-0.0051,-0.0094,-0.0092,-0.012,-0.012,-0.012,0,0,0.0026,0.0026,0.0031,0.0035,0.003,0.0049,0.0015,0.0021,0.0036,-0.0012,-0.0002,-0.003,-0.0055,-0.0049,-0.0052,-0.0064,-0.0072,-0.0058,-0.0054,-0.0048,-0.0093,-0.009,-0.0088,-0.0119,-0.0119,-0.0119,0,0,0.0055,0.0047,0.0069,0.0073,0.0073,0.0069,0.0073,0.0064,0.006,0.0063,0.0034,0.0019,-0.0,-0.0009,-0.0018,0.0009,-0.0042,-0.0001,0.0045,0.0003,0.0005,0.0007,-0.0038,-0.0041,0.0005,0.0005,0.0005,0,0.0063,0.0091,0.0075,0.0101,0.0111,0.0084,0.0115,0.0111,0.01,0.01,0.0077,0.0045,0.0023,0.003,0.0042,0.0024,-0.0015,0.0024,0.0011,0.0012,0.0012,-0.0035,-0.0039,0.0008,0.0008,0.0008,0.0007,0,0.0112,0.0134,0.0148,0.0173,0.0183,0.0204,0.0201,0.0203,0.0186,0.0176,0.0167,0.013,0.0112,0.0101,0.0082,0.0078,0.0045,0.0021,-0.0004,0.0019,-0.0031,-0.0037,0.0014,0.0012,0.0011,0.001,0,0,0.0133,0.0176,0.0181,0.0206,0.0224,0.0239,0.0266,0.0281,0.0293,0.0266,0.0271,0.0249,0.0211,0.0199,0.0163,0.013,0.0098,0.0082,0.0078,0.0043,-0.0003,-0.0016,-0.0025,0.0065,0.0065,0.0065,-0.004,0,0.0178,0.0241,0.0252,0.0312,0.0344,0.0336,0.0365,0.037,0.0358,0.0353,0.0306,0.0295,0.0254,0.0239,0.0203,0.0121,0.0086,0.0128,-0.0024,-0.0029,-0.0039,-0.003,0.0063,-0.0045,-0.0046,-0.0047,-0.0048,0,0.0224,0.0262,0.0331,0.0382,0.0395,0.0426,0.0456,0.0479,0.0466,0.0452,0.0426,0.0377,0.0336,0.0288,0.0169,0.0194,0.0109,0.004,0.0033,-0.0006,-0.0052,-0.0074,-0.006,-0.0059,-0.0058,-0.0057,-0.0056,0,0.0246,0.0316,0.0373,0.0391,0.0444,0.0472,0.0497,0.0507,0.0523,0.0509,0.05,0.0441,0.0396,0.0294,0.0156,0.0157,0.0006,-0.0013,-0.0105,-0.0108,-0.0097,-0.0098,-0.0097,-0.0097,-0.0097,-0.0097,-0.0096,0,0.0287,0.033,0.0387,0.0418,0.0476,0.0506,0.0558,0.0567,0.0583,0.0596,0.0549,0.0525,0.0391,0.0287,0.0169,0.0013,0.0013,-0.0094,-0.0132,-0.0065,-0.0061,-0.0102,-0.0101,-0.0101,-0.01,-0.0099,-0.0098,0,0.029,0.0337,0.0395,0.0462,0.0488,0.0523,0.0591,0.0617,0.0636,0.0648,0.0642,0.0572,0.044,0.0297,0.0115,0.0026,-0.0118,-0.0176,-0.0094,-0.0127,-0.0207,-0.0202,-0.0279,-0.028,-0.0282,-0.0282,-0.0283,0,0.0292,0.0327,0.0407,0.0437,0.0468,0.0532,0.0572,0.0629,0.0658,0.0668,0.0662,0.056,0.0489,0.0234,0.0083,-0.0137,-0.017,-0.0239,-0.0213,-0.0195,-0.0225,-0.0217,-0.021,-0.0285,-0.0285,-0.0285,-0.0286,0,0.0279,0.0306,0.035,0.0424,0.0477,0.0536,0.0602,0.0635,0.0692,0.0706,0.0672,0.0561,0.0408,0.0226,0.0052,-0.0105,-0.0185,-0.025,-0.0249,-0.0226,-0.0203,-0.023,-0.0222,-0.0289,-0.0289,-0.0288,-0.0288,0,0.025,0.0269,0.0335,0.0406,0.0465,0.0529,0.0571,0.0617,0.0662,0.0693,0.067,0.0539,0.0466,0.024,0.0078,-0.0074,-0.011,-0.0148,-0.0153,-0.015,-0.0078,-0.0028,-0.0091,0,0,0,0,0,0.0229,0.0269,0.0314,0.0403,0.0461,0.0514,0.0585,0.0627,0.0693,0.0672,0.0685,0.0551,0.0337,0.0244,0.0087,0.0038,-0.0153,-0.0151,-0.0203,-0.031,-0.0305,-0.0243,0,0,0,0,0,0,0.0217,0.0262,0.0309,0.0395,0.0454,0.053,0.0581,0.062,0.0621,0.0656,0.054,0.0517,0.0296,0.0424,0.0086,0.0041,-0.0012,-0.0244,-0.0247,-0.0312,-0.0308,-0.0305,-0.024,0,0,0,0,0]}]]